"America/Chicago Time","Lifetime Energy (kWh)","Power (W)","AC Volts RMS (V) ","AC Amps RMS (mA)","Grid Frequency (Hz)","Inverter Temperature (C)"
"03/12/12 08:54:11","33.0863","0.0","212.44","0","60.03","9"
"03/12/12 08:59:10","33.0867","13.4","212.58","0","60.0","9"
"03/12/12 09:04:10","33.0876","13.6","213.81","2","60.0","9"
"03/12/12 09:09:11","33.0884","13.9","213.2","63","60.03","9"
"03/12/12 09:14:10","33.0893","20.5","213.4","180","60.07","9"
"03/12/12 09:19:10","33.0902","15.0","212.14","39","60.03","9"
"03/12/12 09:24:09","33.0907","10.3","212.94","6","60.03","10"
"03/12/12 09:29:10","33.0913","11.3","212.34","1","60.03","10"
"03/12/12 09:34:11","33.0921","20.8","213.08","256","60.03","10"
"03/12/12 09:39:11","33.0935","16.8","212.46","11","60.03","10"
"03/12/12 09:44:11","33.0947","13.6","213.9","158","60.03","10"
"03/12/12 09:49:11","33.096","15.5","213.13","16","60.03","10"
"03/12/12 09:54:11","33.0976","13.4","212.53","15","60.03","11"
"03/12/12 09:59:09","33.0995","35.8","213.22","255","60.03","11"
"03/12/12 10:04:10","33.1022","13.5","213.32","103","60.0","11"
"03/12/12 10:09:09","33.1036","12.2","213.32","15","60.0","11"
"03/12/12 10:14:10","33.1052","21.8","212.63","17","60.03","11"
"03/12/12 10:19:10","33.1068","25.2","211.83","297","60.03","11"
"03/12/12 10:24:11","33.1087","27.5","213.84","230","60.0","11"
"03/12/12 10:29:10","33.1114","39.0","214.07","123","60.03","11"
"03/12/12 10:34:10","33.1144","33.7","213.85","298","60.0","12"
"03/12/12 10:39:10","33.1174","25.6","213.96","243","60.03","12"
"03/12/12 10:44:11","33.1197","24.6","213.59","115","60.03","12"
"03/12/12 10:49:11","33.122","34.6","213.43","120","60.0","12"
"03/12/12 10:54:11","33.1244","27.4","213.33","75","60.03","12"
"03/12/12 10:59:11","33.1262","28.1","213.57","122","60.03","13"
"03/12/12 11:04:10","33.1275","22.4","213.41","172","60.03","13"
"03/12/12 11:09:10","33.1291","15.5","213.82","38","60.03","13"
"03/12/12 11:14:10","33.1306","15.6","214.2","241","60.03","13"
"03/12/12 11:19:10","33.132","12.2","214.3","7","60.03","12"
"03/12/12 11:24:10","33.1331","23.6","213.14","258","60.03","12"
"03/12/12 11:29:11","33.1354","38.7","214.18","239","60.0","12"
"03/12/12 11:34:11","33.1375","25.2","213.52","35","60.0","12"
"03/12/12 11:39:11","33.1392","22.5","213.04","225","60.03","12"
"03/12/12 11:44:09","33.1419","45.4","214.47","165","60.03","12"
"03/12/12 11:49:10","33.1449","36.0","213.66","126","60.03","13"
"03/12/12 11:54:10","33.1468","35.9","213.56","148","60.03","13"
"03/12/12 11:59:11","33.1486","33.5","214.41","130","60.03","13"
"03/12/12 12:04:10","33.1509","35.4","213.64","235","60.0","13"
"03/12/12 12:09:10","33.1539","43.2","213.72","150","60.0","13"
"03/12/12 12:14:10","33.1576","48.9","214.76","375","60.03","13"
"03/12/12 12:19:11","33.1618","54.5","215.04","385","60.03","14"
"03/12/12 12:24:10","33.1653","48.4","214.5","342","60.03","15"
"03/12/12 12:29:10","33.1687","52.1","213.9","354","60.03","15"
"03/12/12 12:34:10","33.1715","34.1","214.37","211","60.03","15"
"03/12/12 12:39:10","33.1741","30.1","213.46","103","60.03","16"
"03/12/12 12:44:11","33.1765","23.5","213.36","285","60.0","16"
"03/12/12 12:49:09","33.1785","25.9","213.64","265","60.03","16"
"03/12/12 12:54:11","33.1814","53.9","213.57","368","60.03","16"
"03/12/12 12:59:11","33.1843","25.6","213.94","215","60.03","16"
"03/12/12 13:04:11","33.1865","30.0","213.47","17","60.03","16"
"03/12/12 13:09:11","33.1884","12.1","214.07","66","60.03","16"
"03/12/12 13:14:10","33.19","35.5","213.89","115","60.0","15"
"03/12/12 13:19:11","33.1927","38.0","213.93","259","60.07","15"
"03/12/12 13:24:11","33.1961","44.7","213.68","379","60.03","16"
"03/12/12 13:29:10","33.1998","53.0","214.36","250","60.0","17"
"03/12/12 13:34:11","33.2038","37.8","213.31","386","60.07","17"
"03/12/12 13:39:11","33.2079","40.3","214.4","124","60.03","18"
"03/12/12 13:44:10","33.211","40.7","213.69","277","60.0","18"
"03/12/12 13:49:11","33.2138","51.7","215.68","300","60.03","19"
"03/12/12 13:54:11","33.2167","41.0","214.55","238","60.07","19"
"03/12/12 13:59:11","33.2202","40.1","215.53","384","60.0","19"
"03/12/12 14:04:10","33.2235","32.7","214.21","285","60.03","19"
"03/12/12 14:09:10","33.2262","52.7","214.75","220","60.03","19"
"03/12/12 14:14:10","33.2318","117.8","216.24","556","60.0","20"
"03/12/12 14:19:11","33.2429","137.6","216.25","639","60.03","22"
"03/12/12 14:24:11","33.2504","84.2","215.43","409","60.03","22"
"03/12/12 14:29:11","33.256","63.4","214.93","321","60.03","23"
"03/12/12 14:34:10","33.2602","52.2","214.73","110","60.0","23"
"03/12/12 14:39:11","33.2635","37.1","213.88","349","60.03","22"
"03/12/12 14:44:10","33.2672","51.6","213.48","90","60.0","22"
"03/12/12 14:49:11","33.2717","63.4","214.19","324","60.03","21"
"03/12/12 14:54:11","33.2769","73.5","215.09","369","60.03","21"
"03/12/12 14:59:11","33.2831","84.0","216.5","412","60.03","22"
"03/12/12 15:04:10","33.2916","99.5","216.05","476","60.0","23"
"03/12/12 15:09:11","33.2986","112.4","216.06","535","60.03","23"
"03/12/12 15:14:10","33.3075","108.7","216.36","519","60.07","24"
"03/12/12 15:19:10","33.3162","114.4","216.44","537","60.0","25"
"03/12/12 15:24:10","33.3262","146.7","217.1","676","60.03","26"
"03/12/12 15:29:10","33.3377","175.6","217.43","802","60.03","27"
"03/12/12 15:34:10","33.3496","162.9","217.95","741","60.03","28"
"03/12/12 15:39:11","33.361","133.9","217.33","625","60.03","29"
"03/12/12 15:44:11","33.371","121.6","216.99","567","60.0","29"
"03/12/12 15:49:10","33.3806","127.1","216.24","596","60.03","29"
"03/12/12 15:54:10","33.3894","106.7","216.62","507","60.0","28"
"03/12/12 15:59:11","33.3957","33.1","214.43","202","60.03","27"
"03/12/12 16:04:11","33.4011","78.7","215.84","392","60.03","26"
"03/12/12 16:09:10","33.4048","28.4","213.97","145","60.03","25"
"03/12/12 16:14:10","33.4065","14.1","213.6","50","60.03","24"
"03/12/12 16:19:10","33.4077","19.5","214.0","196","60.03","23"
"03/12/12 16:24:10","33.4089","14.0","214.0","234","60.03","22"
"03/12/12 16:29:10","33.4104","11.6","214.64","245","60.0","21"
"03/12/12 16:34:11","33.4121","34.8","214.48","267","60.03","20"
"03/12/12 16:39:11","33.4151","43.2","215.51","193","60.03","20"
"03/12/12 16:44:11","33.4189","29.3","215.14","81","60.0","20"
"03/12/12 16:49:10","33.421","16.9","214.38","24","60.03","20"
"03/12/12 16:54:11","33.4226","14.0","214.85","12","60.03","20"
"03/12/12 16:59:10","33.4241","22.4","214.99","73","60.03","20"
"03/12/12 17:04:10","33.4269","70.5","214.53","390","60.03","20"
"03/12/12 17:09:11","33.43","12.9","212.69","2","60.03","20"
"03/12/12 17:14:11","33.4307","12.1","212.97","3","60.0","20"
"03/12/12 17:19:11","33.4311","0.0","213.08","0","60.0","20"
"03/12/12 17:24:12","33.4314","0.0","213.52","0","60.03","19"
"03/13/12 08:14:10","33.4327","16.0","212.73","28","60.03","7"
"03/13/12 08:19:11","33.4344","15.7","213.95","73","60.03","7"
"03/13/12 08:24:11","33.4364","37.9","214.18","76","60.0","8"
"03/13/12 08:29:11","33.4424","93.7","215.9","449","60.0","9"
"03/13/12 08:34:11","33.4492","93.5","215.92","452","60.0","9"
"03/13/12 08:39:10","33.457","111.0","215.69","532","60.03","10"
"03/13/12 08:44:11","33.4646","88.1","215.63","431","60.03","10"
"03/13/12 08:49:10","33.472","86.5","214.96","420","60.0","11"
"03/13/12 08:54:11","33.479","62.5","214.2","322","60.03","11"
"03/13/12 08:59:10","33.4843","114.5","216.57","539","60.03","11"
"03/13/12 09:04:12","33.49","61.2","215.07","345","60.0","11"
"03/13/12 09:09:11","33.4975","64.3","215.15","325","60.03","12"
"03/13/12 09:14:11","33.5087","146.9","217.14","681","60.03","13"
"03/13/12 09:19:11","33.5197","139.3","215.69","650","60.03","13"
"03/13/12 09:24:11","33.5308","146.6","216.54","673","60.0","13"
"03/13/12 09:29:12","33.5422","146.4","216.66","681","60.03","14"
"03/13/12 09:34:10","33.5538","151.6","216.9","696","60.0","14"
"03/13/12 09:39:12","33.5658","156.8","217.76","717","60.03","14"
"03/13/12 09:44:10","33.5782","159.8","217.55","738","60.07","15"
"03/13/12 09:49:12","33.5909","164.6","218.19","751","60.0","15"
"03/13/12 09:54:10","33.6038","169.0","217.99","770","60.03","15"
"03/13/12 09:59:11","33.6171","173.0","218.13","784","60.0","15"
"03/13/12 10:04:10","33.6308","176.5","216.9","803","60.03","15"
"03/13/12 10:09:12","33.6447","180.5","217.63","821","60.0","15"
"03/13/12 10:14:11","33.6588","183.6","218.5","834","60.0","16"
"03/13/12 10:19:11","33.6733","187.6","218.02","851","60.0","16"
"03/13/12 10:24:11","33.688","190.0","218.5","857","60.0","16"
"03/13/12 10:29:12","33.703","193.8","218.65","874","60.07","17"
"03/13/12 10:34:11","33.7181","195.9","218.63","876","60.0","17"
"03/13/12 10:39:12","33.7335","195.7","218.21","883","60.03","17"
"03/13/12 10:44:11","33.7487","195.6","218.54","880","60.03","17"
"03/13/12 10:49:11","33.7639","196.1","218.37","888","60.03","17"
"03/13/12 10:54:11","33.7792","195.5","218.82","877","60.03","17"
"03/13/12 10:59:12","33.7944","195.7","219.36","879","60.03","18"
"03/13/12 11:04:12","33.8097","196.3","219.55","878","60.03","18"
"03/13/12 11:09:11","33.8249","196.0","218.58","883","60.03","18"
"03/13/12 11:14:11","33.8402","195.5","218.91","877","60.03","18"
"03/13/12 11:19:10","33.8554","196.0","219.47","882","60.03","18"
"03/13/12 11:24:11","33.8707","195.4","218.1","882","60.0","18"
"03/13/12 11:29:12","33.8859","195.8","218.34","880","60.0","18"
"03/13/12 11:34:10","33.9012","195.6","218.65","884","60.0","18"
"03/13/12 11:39:10","33.9164","194.7","218.8","884","60.03","18"
"03/13/12 11:44:12","33.9317","196.0","218.75","891","60.03","19"
"03/13/12 11:49:12","33.9469","196.2","219.21","889","60.03","18"
"03/13/12 11:54:11","33.9622","195.8","218.9","883","60.03","18"
"03/13/12 11:59:11","33.9774","195.0","218.17","884","60.03","18"
"03/13/12 12:04:12","33.9927","195.3","217.84","888","60.0","18"
"03/13/12 12:09:11","34.0079","195.4","218.0","868","60.0","18"
"03/13/12 12:14:12","34.0232","196.3","217.77","890","60.03","18"
"03/13/12 12:19:11","34.0384","195.2","217.72","891","60.03","18"
"03/13/12 12:24:10","34.0536","195.7","218.63","884","60.07","18"
"03/13/12 12:29:11","34.0689","194.9","218.04","888","60.0","18"
"03/13/12 12:34:11","34.0841","196.1","218.4","878","60.0","18"
"03/13/12 12:39:11","34.0994","196.0","217.92","891","60.03","19"
"03/13/12 12:44:11","34.1146","195.7","218.99","878","60.03","19"
"03/13/12 12:49:11","34.1298","195.8","218.6","876","60.03","19"
"03/13/12 12:54:12","34.1451","196.1","219.02","881","60.03","19"
"03/13/12 12:59:11","34.1603","195.4","218.97","877","60.07","19"
"03/13/12 13:04:10","34.1755","196.4","218.83","884","60.0","19"
"03/13/12 13:09:11","34.1909","195.5","218.04","876","60.03","19"
"03/13/12 13:14:11","34.2062","195.4","217.91","891","60.07","19"
"03/13/12 13:19:11","34.2213","196.7","218.28","885","60.0","19"
"03/13/12 13:24:10","34.2366","195.9","218.73","881","60.03","18"
"03/13/12 13:29:10","34.2518","195.5","217.67","886","60.0","19"
"03/13/12 13:34:12","34.2672","196.3","218.13","889","60.0","19"
"03/13/12 13:39:11","34.2823","195.6","218.84","883","60.03","19"
"03/13/12 13:44:11","34.2976","195.9","218.35","881","60.03","19"
"03/13/12 13:49:12","34.3129","195.4","217.83","883","60.03","19"
"03/13/12 13:54:11","34.3281","195.7","218.92","882","60.03","19"
"03/13/12 13:59:11","34.3433","196.1","218.33","878","60.03","19"
"03/13/12 14:04:11","34.3586","195.9","218.16","883","60.0","19"
"03/13/12 14:09:11","34.3738","195.3","218.33","886","60.0","20"
"03/13/12 14:14:11","34.3891","195.8","218.4","881","60.03","20"
"03/13/12 14:19:12","34.4044","195.7","219.06","879","60.03","20"
"03/13/12 14:24:12","34.4197","195.6","218.15","883","60.03","20"
"03/13/12 14:29:12","34.4348","194.7","218.69","877","60.0","20"
"03/13/12 14:34:12","34.4499","192.1","217.88","872","60.0","20"
"03/13/12 14:39:11","34.4647","189.6","218.02","856","60.0","20"
"03/13/12 14:44:11","34.4794","186.5","217.87","848","60.03","20"
"03/13/12 14:49:12","34.4938","183.4","217.92","829","60.0","20"
"03/13/12 14:54:11","34.508","180.7","218.47","820","60.03","20"
"03/13/12 14:59:12","34.522","177.8","218.97","804","60.03","20"
"03/13/12 15:04:11","34.5356","173.7","217.56","790","60.03","20"
"03/13/12 15:09:11","34.549","170.6","218.03","780","60.0","20"
"03/13/12 15:14:10","34.5622","168.2","217.05","770","60.0","19"
"03/13/12 15:19:11","34.5752","164.4","217.61","752","60.0","19"
"03/13/12 15:24:11","34.5878","160.8","217.89","729","60.0","19"
"03/13/12 15:29:11","34.6002","156.5","216.83","721","60.03","19"
"03/13/12 15:34:11","34.6123","152.6","217.0","705","60.03","19"
"03/13/12 15:39:12","34.6123","148.0","216.67","686","60.03","19"
"03/13/12 15:44:12","34.6237","145.0","216.61","666","60.03","18"
"03/13/12 16:02:51","34.6632","127.1","215.98","597","60.03","18"
"03/13/12 16:07:51","34.6729","122.5","215.8","578","60.03","18"
"03/13/12 16:12:50","34.6822","117.4","215.97","553","60.03","18"
"03/13/12 16:17:50","34.6912","112.9","216.24","536","60.0","18"
"03/13/12 16:22:51","34.6998","108.1","215.91","513","60.0","18"
"03/13/12 16:27:51","34.708","103.1","215.35","496","60.03","18"
"03/13/12 16:32:51","34.7158","97.8","214.67","473","60.03","18"
"03/13/12 16:37:51","34.7232","93.3","215.68","447","60.03","18"
"03/13/12 16:42:51","34.7303","87.7","214.63","428","60.0","18"
"03/13/12 16:47:50","34.7368","82.3","214.02","405","60.07","18"
"03/13/12 16:57:52","34.7488","71.7","214.39","361","60.03","17"
"03/13/12 17:02:51","34.7542","66.5","213.72","338","60.07","17"
"03/13/12 17:07:50","34.7591","60.9","213.82","316","60.07","17"
"03/13/12 17:12:51","34.7631","58.0","212.83","215","60.03","17"
"03/13/12 17:17:50","34.7673","42.2","213.28","96","60.0","17"
"03/13/12 17:22:50","34.771","50.8","213.8","314","60.03","17"
"03/13/12 17:27:52","34.7743","46.5","213.85","140","60.0","17"
"03/13/12 17:32:51","34.7773","40.4","214.18","269","60.0","16"
"03/13/12 17:37:51","34.7799","34.9","214.07","266","60.03","16"
"03/13/12 17:42:51","34.7821","38.4","213.92","104","59.96","15"
"03/13/12 17:47:51","34.784","13.2","212.82","17","60.03","15"
"03/13/12 17:52:50","34.7856","17.5","213.42","18","60.0","15"
"03/13/12 17:57:52","34.7868","13.5","213.58","36","60.11","15"
"03/13/12 18:02:51","34.7878","11.7","213.38","7","60.07","15"
"03/13/12 18:07:50","34.7886","14.8","213.08","51","60.03","14"
"03/13/12 18:12:52","34.7891","3.6","213.01","167","60.03","14"
"03/14/12 12:26:13","35.3744","194.8","218.24","884","60.03","30"
"03/14/12 12:31:12","35.389","181.2","216.09","834","60.03","31"
"03/14/12 12:36:12","35.4042","195.0","217.53","887","60.0","32"
"03/14/12 12:41:13","35.4188","193.2","219.07","868","60.0","32"
"03/14/12 12:46:12","35.4339","194.5","218.33","873","60.03","32"
"03/14/12 12:51:12","35.4489","128.3","217.46","597","60.03","33"
"03/14/12 12:56:13","35.456","90.1","216.09","433","60.03","31"
"03/14/12 13:01:13","35.4691","168.1","217.45","772","60.03","32"
"03/14/12 13:06:11","35.484","194.8","218.17","875","60.0","33"
"03/14/12 13:11:12","35.499","194.7","218.93","873","60.03","33"
"03/14/12 13:16:13","35.5134","173.2","218.83","785","60.0","34"
"03/14/12 13:21:13","35.527","179.4","218.4","815","60.0","34"
"03/14/12 13:26:13","35.5417","193.6","218.03","878","60.03","35"
"03/14/12 13:31:13","35.5551","187.2","217.84","847","60.03","35"
"03/14/12 13:36:11","35.5655","163.3","216.75","752","60.03","34"
"03/14/12 13:41:12","35.5771","147.1","216.9","679","60.03","34"
"03/14/12 13:46:13","35.5912","190.9","217.91","857","60.03","36"
"03/14/12 13:51:13","35.6055","168.7","218.26","768","60.07","37"
"03/14/12 13:56:12","35.6191","181.4","218.42","822","60.03","38"
"03/14/12 14:01:12","35.6331","177.9","218.95","802","60.0","38"
"03/14/12 14:06:12","35.6468","173.9","217.46","788","60.03","38"
"03/14/12 14:11:13","35.6603","170.4","217.7","777","60.07","39"
"03/14/12 14:16:13","35.6736","169.3","217.69","771","60.03","40"
"03/14/12 14:21:12","35.6866","168.0","217.92","767","60.0","40"
"03/14/12 14:26:13","35.6999","167.4","218.81","768","60.07","40"
"03/14/12 14:31:12","35.7127","165.8","219.23","754","60.03","39"
"03/14/12 14:36:12","35.7257","166.6","218.68","750","60.03","39"
"03/14/12 14:41:13","35.7385","163.1","219.0","748","60.07","39"
"03/14/12 14:46:12","35.7511","161.8","218.35","738","60.0","38"
"03/14/12 14:51:12","35.7637","160.0","218.46","730","60.03","38"
"03/14/12 14:56:13","35.7761","157.3","217.99","721","60.03","37"
"03/14/12 15:01:11","35.7883","155.1","218.59","709","60.03","36"
"03/14/12 15:06:13","35.8001","149.4","218.46","685","60.0","36"
"03/14/12 15:11:13","35.8116","145.1","218.18","668","60.03","37"
"03/14/12 15:16:12","35.8227","141.8","217.26","657","60.03","36"
"03/14/12 15:21:12","35.8336","139.9","217.31","645","60.03","36"
"03/14/12 15:26:13","35.8445","135.2","215.73","632","60.03","36"
"03/14/12 15:31:13","35.855","133.8","216.83","624","60.03","36"
"03/14/12 15:36:13","35.865","120.7","216.49","565","60.03","36"
"03/14/12 15:41:11","35.8742","114.3","216.19","541","60.0","36"
"03/14/12 15:46:11","35.8828","108.3","215.79","517","60.03","36"
"03/14/12 15:51:13","35.891","99.7","215.83","476","60.03","36"
"03/14/12 15:56:13","35.899","105.5","215.57","504","60.0","36"
"03/14/12 16:01:13","35.9071","102.1","215.67","487","60.07","36"
"03/14/12 16:06:11","35.915","103.7","217.0","491","60.03","36"
"03/14/12 16:11:12","35.9226","96.7","215.61","463","60.03","36"
"03/14/12 16:16:13","35.9301","91.7","215.99","441","60.0","36"
"03/14/12 16:21:12","35.9368","84.2","215.89","413","60.0","36"
"03/14/12 16:26:13","35.9434","80.0","215.74","394","60.03","36"
"03/14/12 16:31:13","35.9496","74.4","215.53","370","60.03","36"
"03/14/12 16:36:13","35.9555","78.3","214.53","388","60.0","35"
"03/14/12 16:41:13","35.9614","75.7","215.49","373","60.03","35"
"03/14/12 16:46:13","35.967","68.3","214.39","344","60.0","33"
"03/14/12 16:51:13","35.9721","61.7","215.4","315","60.03","32"
"03/14/12 16:56:11","35.977","61.8","214.27","320","60.03","30"
"03/14/12 17:01:12","35.9814","52.6","215.01","235","60.07","29"
"03/14/12 17:06:12","35.9857","67.0","214.67","353","60.07","28"
"03/14/12 17:11:13","35.9896","40.1","214.49","183","60.03","27"
"03/14/12 17:16:11","35.9929","39.8","214.26","118","60.03","26"
"03/14/12 17:21:13","35.9957","41.0","213.06","287","60.03","25"
"03/14/12 17:26:13","35.9985","29.8","213.1","113","60.03","25"
"03/14/12 17:31:11","36.0008","37.4","213.11","40","60.03","24"
"03/14/12 17:36:12","36.0026","29.7","213.37","102","60.03","24"
"03/14/12 17:41:12","36.004","10.9","213.3","39","60.03","24"
"03/14/12 17:46:12","36.005","16.2","213.23","14","60.03","23"
"03/14/12 17:51:13","36.0057","14.3","213.03","11","60.03","22"
"03/14/12 17:56:13","36.0062","13.9","213.16","7","60.03","22"
"03/14/12 18:01:13","36.0067","0.0","212.7","35","60.03","21"
"03/14/12 18:06:13","36.0073","12.5","213.02","4","60.03","20"
"03/14/12 18:11:12","36.0077","0.0","213.18","0","60.03","20"
"03/14/12 18:16:13","36.0082","14.3","213.29","32","60.0","20"
"03/14/12 18:21:12","36.0085","0.0","213.23","78","60.0","19"
"03/15/12 07:31:12","36.0092","7.3","213.64","52","60.0","9"
"03/15/12 07:36:12","36.0102","16.6","214.28","111","60.03","9"
"03/15/12 07:41:13","36.0117","13.9","213.68","21","60.03","9"
"03/15/12 07:46:13","36.0135","30.5","215.0","43","60.0","10"
"03/15/12 07:51:12","36.0154","13.2","213.4","90","60.03","10"
"03/15/12 07:56:13","36.0176","27.6","212.98","130","60.0","10"
"03/15/12 08:01:12","36.02","30.4","214.01","77","60.03","11"
"03/15/12 08:06:12","36.0232","44.9","215.02","365","60.0","11"
"03/15/12 08:11:13","36.027","43.6","214.53","264","60.03","11"
"03/15/12 08:16:14","36.0312","67.8","216.09","110","60.0","12"
"03/15/12 08:21:14","36.0357","62.1","215.64","318","60.0","12"
"03/15/12 08:26:12","36.0408","71.5","215.57","361","60.07","13"
"03/15/12 08:31:12","36.0463","47.3","214.88","370","60.03","13"
"03/15/12 08:36:13","36.0503","39.2","215.48","269","60.0","13"
"03/15/12 08:41:12","36.054","39.5","214.92","320","60.0","13"
"03/15/12 08:46:12","36.0587","72.0","216.23","359","60.03","14"
"03/15/12 08:51:12","36.0647","79.7","216.37","384","60.03","14"
"03/15/12 08:56:12","36.0709","78.5","216.39","388","60.03","15"
"03/15/12 09:01:13","36.077","79.1","215.98","388","60.0","15"
"03/15/12 09:06:13","36.0835","87.8","215.95","426","60.03","15"
"03/15/12 09:11:12","36.09","77.3","216.61","383","60.03","15"
"03/15/12 09:16:13","36.0954","67.1","216.04","333","60.0","15"
"03/15/12 09:21:13","36.1005","60.8","215.89","311","60.0","15"
"03/15/12 09:26:14","36.1054","77.3","216.74","384","60.03","15"
"03/15/12 09:31:12","36.1117","79.2","216.41","388","60.0","15"
"03/15/12 09:36:12","36.1182","82.9","216.38","404","60.0","15"
"03/15/12 09:41:13","36.1248","84.8","217.26","411","60.03","15"
"03/15/12 09:46:13","36.1321","95.8","217.59","459","60.0","16"
"03/15/12 09:51:12","36.1395","106.1","217.2","502","60.03","16"
"03/15/12 09:56:13","36.1481","113.2","217.43","533","60.0","17"
"03/15/12 10:01:12","36.1571","118.6","218.17","551","60.0","18"
"03/15/12 10:06:12","36.1655","96.0","217.77","455","60.03","18"
"03/15/12 10:11:13","36.1724","84.9","216.8","408","60.03","18"
"03/15/12 10:16:13","36.1784","73.2","216.36","365","60.03","18"
"03/15/12 10:21:13","36.185","90.5","216.43","441","60.03","18"
"03/15/12 10:26:13","36.1924","91.2","216.68","439","60.0","18"
"03/15/12 10:31:12","36.1993","83.9","215.63","413","60.03","18"
"03/15/12 10:36:13","36.2054","75.2","214.6","375","60.03","18"
"03/15/12 10:41:14","36.212","93.1","215.74","452","60.03","18"
"03/15/12 10:46:12","36.219","99.6","216.59","477","60.0","18"
"03/15/12 10:51:12","36.2273","122.7","217.05","573","60.03","18"
"03/15/12 10:56:12","36.2376","134.7","216.24","631","60.03","19"
"03/15/12 11:01:13","36.2483","142.6","216.94","660","60.0","19"
"03/15/12 11:06:13","36.2603","152.5","216.69","705","60.0","20"
"03/15/12 11:11:12","36.2723","151.7","216.66","702","60.03","22"
"03/15/12 11:16:13","36.2851","173.1","218.03","785","60.0","22"
"03/15/12 11:21:13","36.2986","171.5","218.71","776","60.0","23"
"03/15/12 11:26:12","36.3118","177.0","218.23","801","60.0","24"
"03/15/12 11:31:13","36.3256","173.0","218.15","782","60.0","25"
"03/15/12 11:36:13","36.3384","156.7","217.41","721","60.03","25"
"03/15/12 11:41:14","36.3503","155.2","217.82","711","60.03","25"
"03/15/12 11:46:12","36.362","154.8","216.53","710","60.0","25"
"03/15/12 11:51:13","36.3741","149.8","217.29","682","60.0","25"
"03/15/12 11:56:12","36.3858","180.3","217.28","825","60.07","25"
"03/15/12 12:01:12","36.4001","189.2","218.38","853","60.03","27"
"03/15/12 12:06:14","36.4145","180.8","217.59","824","60.03","28"
"03/15/12 12:11:13","36.4288","181.0","217.81","818","60.0","28"
"03/15/12 12:16:14","36.4428","180.8","216.78","823","60.03","29"
"03/15/12 12:21:12","36.4561","152.4","216.58","706","60.03","31"
"03/15/12 12:26:12","36.4689","172.5","217.11","795","60.03","32"
"03/15/12 12:31:13","36.4826","171.2","218.09","780","60.0","32"
"03/15/12 12:36:13","36.4965","181.3","217.91","820","60.03","33"
"03/15/12 12:41:14","36.511","188.2","217.85","852","60.03","34"
"03/15/12 12:46:12","36.5252","182.9","217.12","826","59.96","34"
"03/15/12 12:51:13","36.5395","176.6","217.64","808","60.03","35"
"03/15/12 12:56:13","36.5536","181.3","218.69","816","60.03","36"
"03/15/12 13:01:14","36.5677","170.3","217.76","778","60.03","36"
"03/15/12 13:06:12","36.5811","180.2","218.04","816","60.03","37"
"03/15/12 13:11:13","36.5956","164.3","217.74","752","60.03","37"
"03/15/12 13:16:14","36.6088","172.3","218.17","780","60.03","37"
"03/15/12 13:21:13","36.619","104.8","215.34","502","60.03","36"
"03/15/12 13:26:13","36.628","132.5","216.05","619","60.0","34"
"03/15/12 13:31:13","36.6403","169.3","216.64","772","60.0","34"
"03/15/12 13:36:14","36.6522","195.1","217.75","883","60.03","33"
"03/15/12 13:41:14","36.6665","179.7","218.15","810","60.0","33"
"03/15/12 13:46:14","36.6794","172.3","216.92","787","60.03","33"